Regional Weather Roundup
Issued by NWS

Home | Current Version | Previous Version | Graphics & Text | Print | Product List | Glossary On
Versions: 1 2 3 4 5 6 7 8 9 10 11 12 13 14 15 16 17 18 19 20 21 22 23 24 25 26 27 28 29 30 31 32 33 34 35 36 37 38 39 40 41 42 43 44 45 46 47 48 49 50
000
ASUS43 KIND 260959
RWRIN

WEATHER ROUNDUP FOR INDIANA
NATIONAL WEATHER SERVICE INDIANAPOLIS IN
600 AM EDT SUN APR 26 2015

NOTE: "FAIR" INDICATES FEW OR NO CLOUDS BELOW 12,000 FEET WITH NO
SIGNIFICANT WEATHER AND/OR OBSTRUCTIONS TO VISIBILITY.

* - STATION DOES NOT REPORT WEATHER SUCH AS PRECIPITATION OR FOG.

+ - STATION NOT QUALITY CONTROLLED BY THE NATIONAL WEATHER SERVICE.
    USE DATA WITH CAUTION...ESPECIALLY DEWPOINT AND RELATIVE
    HUMIDITY OBSERVATIONS.

INZ001>003-010>013-019-020-261100-
NORTHWEST INDIANA

CITY           SKY/WX    TMP DP  RH WIND       PRES   REMARKS
GARY /AIRPORT/ CLEAR     43  30  61 NE12      29.90S

$$

LMZ046-743>745-261100-
SOUTHERN LAKE MICHIGAN

STATION/POSITION TIME  TEMP    WIND        PRES    WAVE
                       AIR SEA DIR/SP/G            HT
                 (UTC) (F)     (DEG/KT/KT) (MB)    (FT)
BURNS HARBOR     0900   44      50/ 16/ 18 1012.9R
MICHIGAN CITY    0900   43      30/ 19/ 20   N/A
5NW MICH CITY    0900   42 45   60/ 12/ 16   N/A     3

$$

INZ004-005-014>016-021>024-261100-
NORTH CENTRAL INDIANA

CITY           SKY/WX    TMP DP  RH WIND       PRES   REMARKS
GOSHEN         CLEAR     34  28  79 N7        29.88R WCI  28
SOUTH BEND     CLEAR     37  27  67 NE8       29.90R

$$

INZ006>009-017-018-025>027-261100-
NORTHEAST INDIANA

CITY           SKY/WX    TMP DP  RH WIND       PRES   REMARKS
ANGOLA *+      CLEAR     34  27  75 NE5       29.87R WCI  30
FORT WAYNE     CLEAR     35  29  78 N7        29.85R WCI  29

$$

INZ028-029-035-036-043>045-051>053-261100-
WEST CENTRAL INDIANA

CITY           SKY/WX    TMP DP  RH WIND       PRES   REMARKS
CRAWFORDSVL +  PTCLDY    38  29  71 N5        29.84R
GREENCASTLE +  CLOUDY    41  30  65 NE13      29.82R
LAFAYETTE      CLEAR     39  31  72 NE7       29.85R
TERRE HAUTE    CLOUDY    44  32  62 NE10      29.82R

$$

INZ030>032-037>040-046>048-054>057-064-065-261100-
CENTRAL INDIANA

CITY           SKY/WX    TMP DP  RH WIND       PRES   REMARKS
GREENWOOD *+   CLOUDY    41  30  65 NE13      29.81R
INDIANAPOLIS   CLOUDY    42  31  64 N12       29.80R
-EAGLE CREEK   PTCLDY    41  30  65 NE9       29.82R
KOKOMO *+      CLEAR     36  30  80 NE7       29.84S
MT COMFORT *+  MOCLDY    41  28  60 NE10      29.82R
SHELBYVILLE    CLOUDY    44  32  62 N12       29.79R

$$

INZ033-034-041-042-049-050-058-059-261100-
EAST CENTRAL INDIANA

CITY           SKY/WX    TMP DP  RH WIND       PRES   REMARKS
MUNCIE         MOCLDY    38  32  79 NE8       29.81R

$$

INZ060-061-067>069-081>083-085>088-261100-
SOUTHWEST INDIANA

CITY           SKY/WX    TMP DP  RH WIND       PRES   REMARKS
EVANSVILLE     CLOUDY    48  43  82 NE10      29.76R
HUNTINGBURG *+ CLOUDY    46  41  81 NE9       29.75R

$$

INZ062-063-066-070>080-084-089>092-261100-
SOUTH CENTRAL AND SOUTHEAST INDIANA

CITY           SKY/WX    TMP DP  RH WIND       PRES   REMARKS
BLOOMINGTON    CLOUDY    43  29  57 NE12      29.79R
MADISON *+     CLOUDY    43  34  70 N5        29.76R
SEYMOUR +      MOCLDY    45  32  61 N9        29.77R

$$



USA.gov is the U.S. government's official web portal to all federal, state and local government web resources and services.